カタログに戻る

COSMOS 1275 DEB

運用中PO
NORAD 17639·DEBRIS·🇷🇺 Russia

打ち上げ Jun 4, 1981 から Plesetsk Cosmodrome

Loading…

次のパス (今後24時間)

TLE

最新Source: Space-Track

元期: Sep 14, 2026, 04:16 UTC

1 17639U 81053LJ  26257.17822083  .00000918  00000-0  10620-2 0  9995
2 17639  82.9958  52.3656 0153747 287.2137 196.3101 13.63355448 43092

AllMySatでCOSMOS 1275 DEBをリアルタイム追跡

Download on the App Store